GW3347 Weather Reports


Display with metric or nautical units.
time (UTC)temp
F
wind
direction
speed
MPH
gust
MPH
rain 1hr
in
rain 24hr
in
rain mn
in
humidity
%
barometer
mb
20260505083040 62 0 0.0 2.0 0.00 0.00 0.00 60 1010.9
20260505081537 62 271 0.0 8.0 0.00 0.00 0.00 60 1010.8
20260505080036 62 0 0.0 9.0 0.00 0.00 0.00 60 1010.8
20260505074533 62 0 0.0 12.0 0.00 0.00 0.00 60 1010.7
20260505073032 62 200 0.0 8.0 0.00 0.00 0.00 60 1010.7
20260505071535 62 217 1.0 9.0 0.00 0.00 0.00 60 1010.6
20260505070033 62 0 1.0 8.0 0.00 0.00 0.00 60 1010.5
20260505064550 61 0 0.0 1.0 0.00 0.00 0.00 60 1010.6
20260505063031 61 0 0.0 1.0 0.00 0.00 0.00 61 1010.6
20260505061538 61 0 0.0 0.0 0.00 0.00 0.00 61 1010.4
20260505060032 61 0 0.0 0.0 0.00 0.00 0.00 60 1010.5
20260505054530 62 0 0.0 0.0 0.00 0.00 0.00 58 1010.4
20260505053030 63 0 0.0 0.0 0.00 0.00 0.00 57 1010.6
20260505051532 63 0 0.0 0.0 0.00 0.00 0.00 56 1010.6
20260505041534 63 0 0.0 0.0 0.00 0.00 0.00 58 1010.5
20260505040031 63 0 0.0 0.0 0.00 0.00 0.00 57 1010.4
20260505034533 63 0 0.0 0.0 0.00 0.00 0.00 58 1010.4
20260505033035 61 0 0.0 0.0 0.00 0.00 0.00 61 1010.4
20260505031531 59 0 0.0 0.0 0.00 0.00 0.00 66 1010.4
20260505030030 58 0 0.0 1.0 0.00 0.00 0.00 72 1010.4
20260505024541 58 0 0.0 0.0 0.00 0.00 0.00 70 1010.5
20260505023030 60 0 0.0 0.0 0.00 0.00 0.00 69 1010.3
20260505021537 63 0 0.0 0.0 0.00 0.00 0.00 61 1010.3
20260505020032 63 0 0.0 0.0 0.00 0.00 0.00 57 1010.1
20260505014536 63 0 0.0 0.0 0.00 0.00 0.00 59 1010.3
20260505013032 62 0 0.0 1.0 0.00 0.00 0.00 63 1010.1
20260505011534 61 0 0.0 0.0 0.00 0.00 0.00 69 1010.0
20260505010031 60 0 0.0 0.0 0.00 0.00 0.00 73 1009.9
20260505004531 61 0 0.0 0.0 0.00 0.00 0.00 73 1009.9
20260505003028 62 0 0.0 0.0 0.00 0.00 0.00 69 1009.8
20260505001540 63 0 0.0 2.0 0.00 0.00 0.00 67 1009.9
20260505000039 65 0 0.0 1.0 0.00 0.00 0.00 62 1009.9
20260504234531 67 0 0.0 0.0 0.00 0.00 0.00 57 1009.8
20260504233029 69 0 0.0 0.0 0.00 0.00 0.00 53 1009.7
20260504231540 69 0 0.0 0.0 0.00 0.00 0.00 49 1009.7
20260504230028 70 0 0.0 6.0 0.00 0.00 0.00 48 1009.7
20260504224537 69 0 0.0 6.0 0.00 0.00 0.00 49 1009.6
20260504223030 69 0 1.0 14.0 0.00 0.00 0.00 47 1009.7
20260504221530 69 172 6.0 17.0 0.00 0.00 0.00 45 1009.7
20260504220032 69 150 0.0 20.0 0.00 0.00 0.00 44 1009.7
20260504214531 70 0 6.0 18.0 0.00 0.00 0.00 42 1009.8
20260504213030 70 142 1.0 15.0 0.00 0.00 0.00 44 1009.8
20260504211531 71 196 0.0 17.0 0.00 0.00 0.00 43 1009.8
20260504210043 72 143 1.0 13.0 0.00 0.00 0.00 41 1009.8
20260504204528 76 142 3.0 11.0 0.00 0.00 0.00 38 1009.8
20260504203033 77 0 0.0 11.0 0.00 0.00 0.00 33 1009.8
20260504201531 76 0 0.0 0.0 0.00 0.00 0.00 34 1009.8
20260504200032 76 0 0.0 6.0 0.00 0.00 0.00 32 1009.9
20260504194542 76 0 0.0 9.0 0.00 0.00 0.00 33 1010.1
20260504193030 75 211 1.0 11.0 0.00 0.00 0.00 34 1010.4
20260504191535 75 0 0.0 13.0 0.00 0.00 0.00 37 1010.8
20260504190032 74 0 3.0 17.0 0.00 0.00 0.00 35 1010.9
20260504184537 74 229 4.0 11.0 0.00 0.00 0.00 33 1011.0
20260504183031 74 0 0.0 14.0 0.00 0.00 0.00 39 1011.3
20260504181530 73 0 0.0 12.0 0.00 0.00 0.00 35 1011.5
20260504180048 73 0 0.0 5.0 0.00 0.00 0.00 35 1011.6
20260504174530 73 0 0.0 15.0 0.00 0.00 0.00 38 1011.9
20260504173035 72 0 0.0 8.0 0.00 0.00 0.00 38 1012.1
20260504171532 71 0 1.0 11.0 0.00 0.00 0.00 37 1012.3